RH
21 20 22 22 24 23 22 21 22 22 21 21 21 22 22 23 22 22 22 22 22 22 22 22 22 22 21 20 20 20 21 23 24 24 24 24 24 23 22 15 9 7 8 30 36 24 26 25 20 17 18 17 17 18 19 18 9 5 5 5 6 8 9 9 9 9 9 10 11 12 14 16 18 20 21 22 23 24 24 24 24 25 24 24 24
19 21 22 21 23 22 22 21 21 21 20 20 20 20 21 22 21 21 21 21 21 21 21 21 21 21 20 20 19 20 20 21 23 23 24 24 24 23 23 19 11 8 7 21 27 18 18 17 13 10 9 10 11 10 9 10 6 5 5 6 8 9 9 9 9 10 11 12 13 15 18 19 21 22 24 24 24 25 25 24 24 24 24 24 24
20 22 21 21 23 22 22 20 20 20 19 19 19 19 20 20 21 21 20 20 20 20 20 20 20 20 20 19 19 19 20 20 22 22 24 23 24 24 23 22 16 10 9 13 14 11 12 12 10 9 9 9 11 8 5 5 4 6 6 8 9 9 9 9 10 12 14 14 16 19 21 22 23 24 25 24 25 25 25 25 25 24 24 24 24
21 22 21 22 21 22 21 20 20 19 18 18 18 18 18 19 20 20 19 19 19 19 19 20 19 19 19 19 19 18 19 20 21 22 23 23 23 24 23 23 20 14 10 10 8 8 9 10 10 10 9 9 11 7 4 4 4 6 7 9 9 9 9 11 13 15 17 17 19 21 24 25 25 25 25 25 25 25 25 25 24 24 24 24 23
22 22 21 21 20 21 20 19 19 18 18 17 17 17 18 18 18 19 19 19 18 19 18 19 19 19 19 18 18 18 19 19 20 21 22 23 23 23 23 22 21 16 11 8 7 7 8 8 9 10 10 10 10 7 4 4 5 6 9 9 9 9 12 14 16 19 20 19 19 22 25 25 26 26 25 26 25 25 25 25 24 24 24 24 24
22 21 21 20 21 19 18 19 18 18 18 17 17 17 17 17 17 18 17 18 18 18 18 18 18 18 18 18 18 17 18 19 19 21 22 23 23 23 23 22 21 17 13 9 7 7 7 7 8 9 9 10 10 7 4 4 6 8 9 9 9 11 14 17 18 21 22 22 22 24 25 26 26 25 26 25 26 26 25 25 24 24 25 25 25
22 21 21 20 21 19 18 17 17 18 17 17 17 17 17 17 17 17 17 17 17 18 18 17 18 18 18 18 17 18 18 19 19 20 22 22 22 23 23 22 20 18 15 11 8 8 8 7 7 7 9 10 10 8 5 6 7 9 9 9 11 14 17 19 20 22 23 24 25 26 25 26 26 26 26 26 26 26 25 25 25 25 26 26 26
23 21 20 20 20 19 18 17 18 17 17 17 17 17 17 17 17 17 17 17 17 17 17 18 18 18 18 18 17 17 18 18 19 20 21 22 22 22 22 22 20 18 16 13 11 10 10 8 7 6 7 9 10 9 7 7 9 9 9 10 13 16 20 21 22 23 23 25 26 26 26 26 26 27 26 26 26 25 24 25 25 26 26 26 26
24 21 21 21 20 20 19 18 19 18 18 17 17 17 16 17 17 17 17 17 17 17 17 17 18 18 17 18 18 18 18 19 19 20 21 22 22 22 22 21 20 19 16 16 14 12 12 10 8 6 6 7 9 9 9 9 9 9 11 13 15 19 22 23 23 24 23 25 26 26 26 27 27 27 27 26 25 24 24 25 26 26 26 25 25
27 22 22 22 21 21 21 19 19 20 19 18 18 18 17 17 17 17 17 17 17 17 17 17 18 18 17 17 18 18 18 19 19 19 20 22 22 22 22 21 21 19 17 17 16 15 13 10 8 6 6 6 7 9 9 9 9 10 13 16 18 20 23 24 24 24 24 25 25 26 26 27 27 27 26 25 24 24 24 25 26 25 25 25 25
30 25 24 25 24 23 22 21 21 21 21 20 20 19 19 18 17 17 17 17 17 17 17 17 18 17 18 18 18 18 19 19 19 20 20 21 22 22 22 22 21 20 19 18 18 17 14 11 9 7 6 6 7 8 8 9 10 13 15 18 20 21 23 23 24 24 24 24 25 25 26 26 26 26 25 25 24 24 25 25 25 25 26 25 26
35 27 25 26 26 26 25 25 25 25 24 23 22 21 20 19 18 18 17 17 17 17 17 17 18 18 18 18 18 18 19 19 19 20 20 21 21 22 22 22 21 21 20 19 19 18 16 13 11 10 8 8 7 7 8 10 11 14 16 18 20 21 23 23 23 24 24 24 25 25 25 25 25 25 25 24 24 24 25 25 25 25 26 26 25
37 29 27 28 28 30 29 29 30 28 27 26 26 25 23 21 20 19 18 18 17 17 17 18 18 18 18 18 19 19 19 19 19 20 20 21 21 22 22 22 22 21 20 20 19 19 18 14 13 12 11 10 9 9 10 11 13 15 17 18 20 21 23 23 23 24 24 24 24 25 24 25 25 24 24 24 24 25 25 25 26 25 25 25 25
38 33 32 34 34 35 34 34 33 32 32 31 30 28 26 23 21 20 19 18 18 18 17 18 18 18 18 18 19 19 20 19 20 20 20 21 21 22 22 22 22 22 22 21 19 20 20 16 14 14 13 13 12 12 12 13 15 16 18 19 21 22 22 23 24 24 24 24 24 24 24 24 24 24 24 25 25 25 26 26 26 25 25 24 25
40 37 37 41 41 41 40 39 38 38 37 35 34 31 29 26 23 21 20 19 18 18 18 18 18 18 18 19 19 19 20 20 20 20 20 21 21 22 22 22 22 22 23 21 20 20 21 19 17 15 15 15 14 14 14 15 16 18 19 20 21 22 23 24 24 25 24 24 24 24 24 24 24 24 24 25 25 26 26 25 25 24 24 25 28
38 39 44 47 47 49 48 46 45 44 42 40 38 34 32 28 26 23 21 19 18 18 18 18 18 18 19 19 20 20 20 20 21 21 21 21 21 22 22 22 22 22 23 23 22 21 21 21 19 17 17 17 17 17 17 17 18 19 20 21 22 23 24 24 25 25 25 24 24 25 24 24 25 25 25 25 25 25 25 24 24 24 25 28 31
39 44 50 50 53 58 54 51 50 49 47 45 41 37 34 30 28 25 23 20 19 18 18 19 19 19 20 20 20 20 21 21 21 21 21 21 21 22 22 22 22 22 23 23 23 22 22 22 22 19 18 18 19 19 19 19 20 21 21 22 23 24 24 25 25 24 25 24 24 25 25 25 24 25 25 25 24 24 24 24 24 25 27 30 31
44 48 50 52 59 63 59 54 54 53 50 48 44 40 36 32 31 27 25 22 20 19 19 19 19 20 20 20 21 20 21 22 22 22 22 22 22 22 22 22 22 23 23 23 23 23 23 22 23 22 21 20 20 20 20 21 21 22 22 23 23 24 25 24 25 24 24 24 24 25 24 24 24 24 24 24 24 23 23 24 25 27 29 30 31
45 47 48 55 64 67 63 57 55 55 53 50 47 42 38 35 32 29 26 22 20 19 19 20 19 20 20 20 21 21 22 22 22 22 23 23 23 23 23 23 24 24 24 23 23 24 24 23 23 23 23 22 21 21 21 22 22 23 23 23 24 24 24 25 24 23 23 23 23 24 24 24 24 24 24 24 24 23 23 24 26 28 29 30 29
41 44 45 52 62 67 66 59 57 57 55 52 48 44 40 37 33 29 26 22 20 20 20 20 20 20 20 20 21 21 22 22 22 23 23 23 23 24 26 30 32 32 30 27 25 24 24 25 24 24 23 24 23 22 22 22 22 22 23 23 24 23 23 24 23 23 23 24 24 25 25 24 24 24 24 24 23 23 24 25 27 28 29 29 29
41 40 41 49 57 63 65 63 60 58 56 52 49 44 40 36 32 27 24 22 20 20 20 20 20 20 20 21 21 22 22 23 24 23 24 23 25 29 35 41 44 44 43 40 36 31 27 25 25 25 24 24 24 24 23 23 23 23 23 23 23 24 24 24 23 23 24 24 26 26 24 24 23 23 22 22 23 24 25 26 28 28 29 30 29
41 40 42 50 56 60 63 62 59 58 55 51 48 44 40 36 31 27 23 22 21 20 20 20 21 21 22 23 23 23 24 25 27 27 27 27 33 41 47 51 53 54 54 54 52 48 42 34 27 25 26 25 24 25 24 23 24 23 23 24 24 26 26 24 23 24 26 26 25 24 23 23 22 22 22 23 24 26 28 29 29 30 31 31 29
45 47 48 52 58 60 61 60 59 58 55 52 50 47 43 38 33 28 25 23 23 22 22 23 24 25 27 28 28 29 31 33 35 37 39 43 49 55 57 57 58 59 61 62 62 62 60 53 40 30 26 26 27 27 27 25 24 24 24 23 24 26 25 23 24 25 28 28 26 25 23 24 24 24 25 26 30 33 35 36 35 33 31 31 31
54 56 57 58 59 61 62 62 60 59 58 56 54 52 48 44 40 35 32 30 28 29 30 32 34 36 37 37 38 39 41 45 51 55 56 58 60 60 59 58 59 61 63 64 64 66 67 66 58 45 32 28 33 34 33 31 28 28 27 27 30 30 27 26 27 27 29 28 27 26 25 25 26 26 27 30 34 38 41 41 39 36 34 32 32
59 61 62 64 64 64 65 65 64 62 62 62 59 58 56 53 49 46 43 41 39 40 43 47 49 48 47 48 50 52 54 59 63 63 62 62 60 59 59 59 59 59 60 59 59 60 63 67 67 61 47 36 36 34 34 37 36 35 34 35 38 36 30 28 30 31 30 29 27 26 26 26 26 26 29 31 34 37 41 43 43 43 43 39 35
59 61 62 62 63 63 64 65 66 66 68 68 67 66 65 62 60 58 57 55 55 57 59 61 60 58 58 59 61 62 63 64 64 63 63 60 58 58 59 59 57 54 52 51 51 53 55 60 65 68 63 55 47 37 32 35 38 41 42 42 38 34 31 29 31 33 33 34 31 28 27 27 27 27 28 30 32 35 39 44 47 48 49 47 39
57 60 60 58 58 60 62 64 66 69 72 72 73 73 72 71 70 71 70 70 70 71 70 68 66 64 64 64 65 65 64 65 64 63 60 55 54 55 56 55 53 52 48 45 45 46 49 55 62 67 68 68 65 58 49 42 40 39 38 40 38 35 35 33 31 31 34 39 38 34 31 28 27 28 29 30 30 32 37 44 47 47 50 52 44
56 58 57 56 55 57 60 63 65 69 73 74 76 77 77 77 78 79 79 79 77 75 72 68 66 65 65 64 64 64 63 62 57 53 51 49 51 52 52 49 49 51 47 45 45 46 51 57 64 67 68 70 71 72 70 65 60 50 39 37 39 40 41 41 37 34 35 39 43 45 40 32 29 30 30 30 30 31 35 42 45 44 51 55 47
56 55 53 54 53 55 58 60 63 68 72 74 77 79 80 82 82 82 81 79 76 72 69 67 66 65 65 65 64 63 59 52 45 44 44 45 47 45 44 43 43 46 45 45 50 53 55 55 61 67 69 71 72 73 75 76 76 72 63 52 47 44 43 42 39 38 36 37 44 50 46 38 34 32 31 31 31 32 36 41 44 45 54 57 47
54 53 52 53 55 59 62 63 65 68 72 75 79 82 83 84 82 81 78 75 72 69 69 68 68 67 67 65 62 60 52 43 42 44 42 41 42 39 38 37 36 39 40 41 46 54 53 47 52 61 67 71 73 74 75 76 77 78 79 74 67 59 55 52 49 49 47 43 45 47 43 38 37 33 31 32 33 36 40 43 46 52 59 57 47
51 52 52 55 61 66 68 69 69 70 75 79 82 84 84 82 79 79 77 74 71 69 70 71 70 68 67 63 60 54 45 43 46 45 42 42 42 40 38 36 34 35 36 37 39 46 48 45 45 49 55 61 66 70 73 75 76 76 78 80 80 77 74 73 70 69 66 59 56 52 42 40 50 48 35 33 37 42 47 49 53 59 64 60 49
49 51 53 59 66 71 74 74 72 74 79 82 83 82 81 80 77 77 76 74 73 72 72 69 66 66 64 61 57 50 45 47 50 47 45 45 45 44 42 39 37 38 38 38 38 40 44 46 45 43 46 49 53 58 63 68 72 74 75 75 77 78 78 78 78 79 78 74 71 66 59 60 72 70 49 39 43 47 52 56 59 62 66 65 56
50 51 54 62 69 75 80 78 74 75 78 81 82 81 80 79 75 73 72 73 73 70 67 63 60 61 60 57 53 50 49 51 50 49 49 48 47 47 46 45 46 48 47 45 43 42 43 45 46 46 46 45 47 51 53 57 61 65 68 69 71 73 74 74 75 77 78 78 78 76 76 76 81 78 60 47 48 53 57 62 67 70 69 69 64
52 52 55 66 76 79 78 74 74 75 77 79 80 81 79 75 72 69 68 68 66 63 59 55 55 55 54 52 51 52 52 51 50 49 49 48 49 49 49 50 52 53 52 52 51 49 48 47 46 47 45 43 46 49 50 51 52 56 58 61 64 64 65 68 70 72 73 75 77 79 80 81 82 80 69 59 60 63 64 68 77 82 79 74 71
53 54 59 71 79 77 70 69 74 77 77 78 79 79 74 69 66 64 62 60 57 54 50 48 49 51 52 51 53 54 52 53 54 53 50 50 50 50 49 49 52 52 52 54 54 54 54 52 49 47 46 45 47 49 51 51 51 52 52 54 56 56 57 62 65 68 70 72 75 78 80 83 84 83 78 73 72 71 70 73 81 87 87 82 79
56 61 66 70 71 68 68 71 75 77 76 75 75 72 65 60 58 56 56 54 50 47 45 46 50 53 55 56 58 59 58 57 56 54 53 52 51 51 50 50 52 51 51 53 54 54 55 54 52 50 49 49 50 53 54 55 54 54 55 56 58 59 61 65 66 68 69 70 72 74 77 80 84 84 82 80 78 78 78 79 82 86 89 86 84
64 71 70 69 68 65 68 75 76 76 73 71 68 63 57 54 53 53 52 50 47 48 48 48 50 54 57 58 59 59 58 53 49 47 48 49 50 51 52 52 52 51 51 52 52 53 54 55 53 49 48 48 50 55 58 59 59 58 59 61 64 65 67 68 69 70 70 70 71 72 74 76 80 82 81 82 83 82 81 82 83 83 85 86 86
74 77 73 72 73 69 71 75 74 71 68 64 61 56 54 52 50 49 48 47 49 51 52 52 54 57 58 56 53 51 49 44 42 42 44 46 48 51 53 52 52 52 51 51 52 53 55 56 54 50 49 48 49 52 55 58 61 61 61 62 64 65 65 66 68 70 70 71 72 72 73 75 77 78 77 79 81 81 80 83 86 83 81 84 85
82 82 75 72 71 73 76 73 67 64 61 58 56 55 55 52 52 53 51 51 53 52 52 54 56 58 55 51 48 46 44 43 42 43 46 48 49 50 51 51 50 50 49 50 52 54 55 57 57 57 56 55 54 54 55 56 58 61 61 59 58 57 56 55 59 65 69 70 73 75 75 75 76 77 75 76 78 78 77 80 84 83 80 82 84
88 87 81 77 72 75 75 67 62 60 58 58 59 62 62 58 58 59 56 55 54 51 49 50 52 52 51 48 46 44 43 43 44 47 50 51 51 50 49 48 47 46 47 49 51 54 55 56 59 61 60 60 58 56 56 55 54 56 58 58 56 54 53 52 51 54 59 64 70 74 75 76 77 78 77 77 78 77 76 76 77 78 78 81 83
91 85 79 77 73 71 67 62 60 57 59 63 64 66 64 62 61 57 53 51 46 42 43 44 44 44 43 40 39 37 37 38 42 48 50 50 48 46 44 42 40 39 41 44 49 52 52 53 55 57 59 59 57 56 55 51 53 56 54 53 54 55 56 54 50 49 52 57 62 67 72 74 76 78 79 78 78 77 78 78 76 76 78 80 81
91 80 77 74 68 65 62 60 58 56 61 66 67 65 59 55 50 43 39 38 34 30 31 32 33 33 32 31 30 28 28 29 33 36 38 39 38 37 36 35 34 33 34 36 42 45 46 48 49 52 56 57 58 57 55 51 54 56 50 49 54 54 53 53 54 55 53 49 50 55 61 65 68 73 76 77 79 79 79 79 79 78 79 81 81
89 77 77 73 65 63 62 59 58 60 63 65 66 61 46 35 30 27 25 24 24 23 24 25 25 27 26 26 25 24 23 23 24 25 27 29 29 30 30 30 30 30 31 33 35 37 41 42 42 47 51 55 60 56 52 49 46 48 48 51 52 48 50 58 58 52 45 41 42 47 50 53 56 60 64 69 76 81 81 80 81 81 82 82 83
78 68 72 70 63 63 63 60 61 63 62 60 57 45 29 21 19 20 21 20 22 22 23 23 24 25 25 24 23 23 22 21 22 24 25 25 25 25 26 28 29 30 31 31 33 35 38 38 37 41 44 50 57 50 47 46 34 33 42 46 45 43 48 54 49 41 37 38 40 42 43 42 44 50 53 56 64 74 80 80 79 81 83 83 83
72 64 65 64 60 61 61 60 62 63 60 55 46 31 20 19 19 20 23 22 22 22 21 21 21 22 22 22 21 21 21 21 22 22 22 23 23 23 25 27 29 31 32 32 33 33 34 34 33 35 35 38 41 36 42 50 34 23 29 33 37 41 42 41 37 33 33 36 38 39 39 36 38 43 45 47 53 60 67 74 77 78 81 83 83
78 73 68 63 60 61 61 60 61 61 57 47 34 22 18 19 20 22 23 22 20 19 18 18 18 19 18 19 18 18 19 20 20 19 20 20 20 22 23 26 29 31 33 32 32 30 28 28 28 28 27 26 26 22 29 44 39 29 26 26 30 35 36 39 45 41 29 27 35 40 41 39 41 45 46 45 48 51 53 61 71 76 78 81 83
82 86 83 74 66 66 66 63 61 56 48 36 24 20 19 20 21 22 24 23 22 19 18 18 18 18 17 18 18 18 18 18 18 17 17 17 17 19 20 23 26 28 30 30 29 28 26 26 25 24 23 22 22 20 20 30 41 45 39 33 34 34 31 35 45 51 44 38 38 39 40 40 41 46 50 48 47 50 51 54 61 69 75 79 82
84 87 82 75 72 73 70 65 58 45 34 26 23 22 22 22 23 25 27 27 26 23 20 19 18 18 18 18 19 19 18 18 18 17 16 16 16 17 18 20 23 26 28 28 28 27 25 24 23 23 22 22 21 20 20 23 30 39 40 40 39 35 38 43 45 53 61 58 51 43 40 42 41 43 50 51 48 49 52 53 55 62 71 78 81
86 78 67 62 65 67 65 62 51 36 27 24 24 24 24 25 26 27 28 28 28 27 24 21 19 19 19 19 20 19 19 18 18 17 17 17 16 17 18 20 23 25 26 27 27 26 24 23 22 22 21 21 21 20 21 22 22 25 29 33 32 29 38 51 51 55 60 61 62 54 44 46 48 45 47 49 49 51 52 52 52 56 64 71 74
75 71 63 58 58 57 58 57 44 30 26 25 26 27 27 28 29 30 30 30 30 30 28 25 22 21 20 20 20 20 20 19 18 18 17 17 17 18 19 21 22 23 24 25 25 24 24 23 22 22 22 21 22 21 21 22 23 24 24 25 26 25 30 38 43 46 52 59 61 49 38 43 46 42 42 43 44 50 51 47 48 50 53 61 67
61 65 64 59 53 46 46 47 37 26 25 26 27 28 28 28 29 30 30 30 32 33 32 29 25 22 22 21 21 21 20 20 19 19 19 19 19 20 21 22 22 22 23 23 23 23 23 23 23 23 23 23 23 23 23 23 23 24 25 25 26 26 27 30 31 32 42 54 49 34 30 37 40 38 38 36 35 41 46 44 44 45 47 56 66
Wind_Speed
14 15 15 14 12 12 12 12 12 12 12 11 10 10 9 8 6 5 4 3 2 2 3 4 5 7 8 9 10 10 11 12 13 15 16 18 18 19 19 19 19 17 15 13 11 11 11 11 11 10 10 10 9 9 9 9 9 10 11 11 12 13 14 14 15 17 18 19 20 22 23 23 23 22 22 21 21 21 20 19 20 19 19 19 19
14 14 16 15 13 13 13 13 12 12 12 11 10 9 8 7 6 5 4 3 2 1 1 3 4 6 7 8 8 9 9 10 12 13 14 16 16 17 18 19 18 17 15 13 12 11 11 11 11 10 10 9 9 9 8 9 10 11 11 12 12 13 14 14 16 18 19 19 21 22 23 23 22 22 21 20 20 20 19 18 18 18 17 18 18
14 14 16 15 14 13 13 13 13 12 12 11 10 9 8 7 6 5 4 3 2 1 1 2 3 5 6 6 7 7 8 9 10 11 13 14 15 16 17 18 18 17 16 14 13 12 11 11 10 10 10 9 10 9 9 10 10 11 12 12 13 13 15 16 17 19 19 20 21 22 22 22 21 21 20 20 19 18 18 17 17 16 16 17 17
16 15 16 15 15 14 13 13 13 12 11 10 9 8 7 6 5 4 4 3 2 1 0 1 3 4 4 5 6 6 7 8 8 10 11 12 13 14 15 16 17 17 16 15 14 13 12 11 11 10 9 9 10 10 10 11 11 12 13 13 14 14 16 18 19 20 20 20 20 21 21 20 19 19 18 18 17 17 16 16 15 16 16 16 16
17 17 16 15 15 14 14 13 12 12 11 10 9 8 7 6 5 4 4 3 3 2 1 1 2 3 3 4 5 6 6 7 7 8 10 10 11 12 14 15 16 16 16 15 14 14 13 12 11 10 9 9 10 10 11 12 11 12 13 14 15 16 17 19 20 21 20 18 19 20 20 19 18 17 17 16 16 15 15 14 15 15 15 16 16
17 18 18 16 15 14 14 13 12 12 11 10 9 8 7 6 5 5 4 4 3 2 1 1 1 2 3 4 4 5 6 6 7 8 8 9 10 11 12 14 15 15 15 14 14 14 13 12 11 10 9 9 9 10 12 12 12 13 13 15 17 17 18 19 19 20 19 18 18 19 18 17 16 15 15 14 14 14 13 14 14 14 15 15 16
18 19 19 17 15 14 14 13 12 11 11 10 9 8 7 6 6 5 5 4 4 3 2 2 2 2 3 4 4 5 5 5 6 7 7 8 9 10 11 13 14 14 15 14 13 13 12 12 11 10 10 9 9 10 11 12 12 13 13 15 18 18 19 18 19 19 19 18 18 17 16 15 14 13 13 12 12 12 12 12 13 13 14 14 15
19 20 19 17 16 15 14 13 12 11 11 10 9 8 7 6 6 6 5 5 5 4 3 3 3 3 3 3 4 4 5 5 5 6 7 7 8 10 11 12 13 13 13 13 13 12 11 11 11 11 11 10 9 10 11 12 12 13 14 16 18 19 19 18 18 17 17 18 17 15 14 13 12 11 11 10 10 10 11 11 11 12 13 13 14
20 21 20 18 16 15 14 13 12 11 11 10 9 8 7 6 6 6 6 5 5 4 4 4 4 3 3 3 4 4 4 4 5 5 6 6 7 9 10 11 12 12 12 12 12 12 11 10 11 11 11 11 10 11 11 12 13 15 16 17 17 18 18 17 16 15 15 15 15 14 12 11 10 9 8 8 9 9 10 10 10 11 12 13 14
21 21 20 18 17 16 15 13 12 11 10 10 9 7 6 6 6 5 6 5 5 5 4 4 4 3 3 3 3 3 4 4 4 4 5 5 6 8 9 10 11 11 11 12 12 11 10 10 11 11 12 12 12 12 12 13 15 16 16 16 17 17 17 16 15 14 14 13 12 11 10 9 9 8 7 7 8 8 8 9 10 11 12 13 15
21 22 20 18 17 16 15 14 12 11 10 9 8 7 6 6 6 5 6 6 5 5 5 5 4 3 3 2 2 2 3 3 3 3 4 4 5 6 8 9 9 10 10 11 11 11 10 10 10 11 12 12 13 13 13 14 15 15 15 16 16 15 15 14 13 13 11 10 9 8 8 7 6 6 6 6 7 7 8 9 10 11 13 14 15
21 21 20 18 17 16 15 14 12 11 10 9 8 7 7 6 5 5 6 6 6 5 5 5 4 3 3 3 2 2 2 2 2 2 3 3 4 5 6 7 8 9 9 10 10 11 10 9 10 11 12 12 13 13 14 14 15 15 14 14 14 14 13 12 12 11 9 8 7 6 6 5 4 4 5 5 6 7 8 9 10 11 13 14 15
20 20 18 17 16 16 15 14 13 11 10 9 8 8 7 6 6 6 6 6 6 5 5 5 4 4 3 3 3 2 2 2 1 1 2 3 3 4 4 5 6 7 8 9 9 10 10 9 9 11 12 12 12 12 13 13 14 14 13 13 12 12 12 10 10 10 8 6 5 4 4 3 3 3 4 5 6 7 8 9 10 12 13 14 16
17 17 17 16 15 15 15 14 14 12 10 9 9 8 7 6 6 6 6 7 6 6 5 5 4 4 3 3 3 3 3 2 2 1 1 2 3 3 3 4 5 5 6 7 8 9 9 9 9 10 11 11 11 12 11 12 12 12 12 11 11 10 10 9 8 7 6 5 3 3 2 2 2 3 4 5 6 8 9 10 11 12 13 15 16
16 16 15 14 14 14 15 15 14 12 11 10 9 8 7 7 7 7 7 7 6 6 5 5 4 4 3 4 3 3 3 3 3 2 2 2 2 3 2 3 3 4 4 5 7 7 8 8 8 8 10 10 10 10 10 10 11 11 10 10 10 9 8 7 7 5 4 3 2 1 0 1 2 4 5 6 7 8 10 11 12 13 14 16 17
15 14 14 14 14 14 15 15 14 12 11 10 9 8 8 7 7 7 7 7 6 6 5 4 4 4 3 4 4 4 4 4 4 3 2 2 1 2 2 2 2 2 2 3 5 6 6 6 6 7 8 8 8 8 8 8 8 9 9 8 8 8 7 6 5 4 2 2 1 2 2 3 4 5 7 7 8 9 11 12 13 14 15 16 18
14 14 14 15 14 14 15 14 13 11 10 10 9 9 8 8 8 7 7 7 6 6 5 4 4 3 3 4 4 4 4 4 5 4 4 3 2 2 2 2 2 2 2 1 2 4 4 4 4 5 5 6 7 7 7 7 7 7 7 7 7 6 6 4 4 3 3 3 3 4 4 5 6 6 7 9 9 10 11 12 13 15 16 17 19
13 14 14 15 14 15 15 13 12 10 10 10 9 9 9 9 8 7 7 7 7 6 5 4 4 4 4 4 4 5 5 5 5 5 5 4 4 3 3 3 3 3 3 2 0 1 3 3 2 2 3 4 5 6 6 5 5 5 5 5 5 5 5 4 4 4 4 4 5 6 6 6 7 8 8 9 10 11 12 13 14 15 17 18 20
13 14 14 15 15 14 14 13 12 12 11 11 11 11 10 9 8 7 7 7 7 6 6 5 5 5 4 4 5 5 5 6 6 6 6 6 5 5 5 4 4 5 5 4 2 1 1 2 2 2 2 3 3 5 5 5 5 5 5 5 5 5 5 5 5 5 6 6 7 7 8 8 9 10 10 11 11 12 13 14 15 16 17 19 21
13 14 15 15 15 14 13 13 13 13 12 12 11 10 9 8 7 7 7 7 7 7 7 6 6 5 5 5 6 6 6 6 7 7 7 7 6 6 6 6 6 6 6 6 5 3 3 3 3 4 4 4 4 4 5 6 6 7 7 7 6 6 7 7 7 7 8 8 9 9 10 10 11 12 12 13 13 14 14 15 16 17 19 20 21
14 14 14 14 14 14 14 14 14 13 12 12 11 10 9 8 7 7 8 8 8 8 8 7 6 6 6 6 6 6 7 7 8 8 8 8 7 7 7 7 7 7 7 7 7 6 5 5 5 5 5 6 6 6 6 7 7 8 8 8 8 8 8 8 9 9 10 10 11 11 11 12 12 13 14 14 15 15 16 17 18 19 20 20 21
13 13 14 14 15 15 15 14 13 13 12 11 11 10 9 9 8 8 9 9 9 9 8 7 7 7 7 7 7 7 7 8 8 8 8 8 8 8 8 8 8 8 9 9 9 9 8 8 7 7 7 7 7 8 8 9 9 9 9 9 9 9 9 10 10 11 11 12 12 13 13 13 14 14 15 15 16 16 17 18 19 20 20 20 20
13 13 13 14 15 15 14 14 13 12 12 11 11 10 10 9 10 10 10 10 10 9 8 8 8 8 8 7 7 7 7 7 7 7 8 8 8 8 8 8 9 9 10 11 11 11 11 10 10 9 9 9 9 10 10 10 11 10 11 11 11 11 11 11 12 12 13 13 14 14 15 15 15 15 15 15 16 17 18 19 19 20 20 20 20
13 13 13 13 13 14 13 13 13 13 12 12 11 11 10 10 10 11 11 10 9 8 8 8 8 8 7 7 7 7 7 7 7 7 8 8 8 8 9 9 9 10 10 11 12 12 12 12 12 12 11 11 11 11 10 12 12 12 12 12 12 12 12 13 13 14 15 15 16 16 16 16 16 16 16 16 17 17 18 18 19 19 19 20 19
14 13 12 12 12 12 12 12 13 12 12 12 11 11 11 11 11 11 10 9 8 8 7 7 7 7 7 6 6 6 6 6 7 7 7 7 8 8 9 10 10 10 11 11 12 13 13 13 13 13 13 12 12 12 12 13 13 12 13 12 13 13 14 15 15 15 16 17 17 17 17 17 17 17 17 17 18 17 17 18 18 18 19 20 19
14 13 13 12 12 12 12 12 13 12 12 12 12 12 12 12 11 10 9 8 7 7 7 7 6 6 6 6 5 6 5 6 6 6 7 8 9 9 10 10 10 10 11 11 12 13 14 14 13 13 14 14 14 14 14 14 14 14 14 14 15 15 16 16 17 17 17 17 18 18 19 19 19 18 18 19 19 18 18 17 18 19 19 20 19
14 13 13 12 12 12 12 12 13 13 13 13 13 12 12 11 10 9 8 7 7 6 6 6 5 5 5 5 5 4 4 5 6 7 7 8 8 8 9 9 9 10 10 11 11 12 13 13 14 13 13 14 15 15 15 15 16 17 17 17 17 17 17 18 19 19 19 18 19 19 19 19 19 19 19 20 20 19 18 18 18 19 20 19 18
14 13 12 12 11 12 12 13 13 13 13 13 12 12 11 10 8 7 7 6 6 5 5 4 4 5 4 4 3 4 5 6 7 7 7 7 7 7 7 8 8 9 10 10 10 10 11 12 12 12 12 12 13 15 16 17 17 18 18 19 19 18 19 19 20 20 20 20 20 20 20 20 20 20 20 20 21 20 19 19 19 19 19 18 17
13 12 11 11 11 12 13 13 13 13 13 12 12 11 10 8 7 6 6 6 5 5 4 4 4 4 4 4 4 4 6 7 6 5 5 5 6 7 7 8 8 8 9 9 9 9 10 10 11 11 10 11 12 13 14 16 17 18 18 19 19 19 20 20 21 21 21 22 21 21 22 22 22 22 22 21 21 21 20 20 20 20 19 17 15
12 11 11 11 12 13 13 13 13 13 12 12 11 9 8 7 6 6 6 6 5 5 5 5 5 5 5 5 5 5 6 6 5 4 5 6 6 7 7 8 9 9 9 9 9 9 10 10 10 10 10 11 12 13 13 14 15 16 17 18 19 20 20 21 21 21 21 22 22 23 23 24 24 24 24 23 22 21 20 21 20 19 17 15 13
11 11 12 12 13 14 14 13 13 12 12 11 10 9 8 7 6 6 5 6 6 5 6 6 6 6 6 6 6 5 5 4 5 6 7 7 7 7 8 9 10 10 10 10 10 10 10 10 9 9 10 11 12 13 13 13 13 14 15 16 17 18 19 20 21 21 21 21 22 23 23 25 27 27 26 25 23 21 21 21 21 19 16 13 12
11 12 12 13 15 15 14 14 13 13 12 11 10 9 8 7 6 6 6 6 6 6 6 6 6 6 6 6 5 5 4 5 6 7 8 9 9 9 9 10 11 12 11 11 11 11 11 11 10 10 10 11 12 13 13 13 13 13 13 14 15 15 17 18 19 20 21 22 22 23 23 25 26 27 26 25 23 22 21 21 21 20 16 13 12
12 12 13 14 15 14 14 14 13 12 12 11 10 9 8 7 6 6 6 6 6 6 6 6 6 6 5 5 4 4 4 6 7 8 9 9 10 10 10 11 12 13 13 13 13 12 12 12 12 12 12 12 13 13 13 13 13 12 13 13 13 14 15 15 17 19 20 21 22 23 23 23 23 23 24 24 24 22 21 21 22 21 18 15 12
13 13 14 14 14 13 12 12 12 12 11 10 9 8 7 7 6 6 6 6 6 6 6 5 4 3 3 3 3 4 5 6 7 8 9 9 9 10 10 11 12 13 14 14 14 13 13 13 13 13 14 14 14 14 14 13 13 12 12 12 13 14 14 15 16 18 19 20 21 22 22 23 22 21 22 22 22 21 20 20 21 20 19 17 14
13 13 14 14 14 13 12 12 12 12 11 10 9 8 8 7 7 7 6 6 5 5 4 3 2 2 2 2 3 4 4 5 7 8 9 9 10 10 12 12 13 13 13 14 14 14 14 14 14 14 15 15 15 15 15 15 14 14 14 13 13 14 14 14 15 16 18 18 19 20 21 22 22 21 21 21 20 20 20 20 20 19 18 18 17
14 14 14 13 12 12 12 12 12 11 11 10 9 9 8 8 7 7 6 6 5 4 4 3 2 2 2 3 4 4 4 6 8 9 9 10 10 12 13 12 13 13 13 14 14 14 14 15 15 15 15 16 16 16 16 16 16 16 15 15 16 16 16 15 16 16 17 18 18 19 20 20 21 21 22 22 21 20 21 21 21 21 19 17 17
15 15 14 13 12 12 12 11 12 11 11 10 10 10 9 7 7 6 6 6 5 4 4 3 3 3 3 3 4 4 5 6 8 9 9 10 11 12 13 13 13 14 14 14 14 14 15 15 16 16 16 16 17 17 17 17 17 17 17 16 17 17 17 17 17 18 18 19 19 19 19 20 20 21 21 22 22 22 22 22 22 21 21 19 16
17 16 14 14 14 12 12 12 12 12 12 12 11 10 8 6 6 6 6 5 4 4 4 4 3 3 3 3 4 5 6 7 9 9 10 10 11 12 13 13 14 14 15 16 16 15 16 16 16 17 17 17 17 17 18 18 18 18 18 17 17 17 17 18 18 18 18 18 19 19 20 20 19 19 20 20 22 23 22 22 23 22 21 20 17
17 16 16 16 15 13 14 14 13 13 13 12 10 8 7 7 6 6 5 5 4 4 4 4 4 4 4 4 4 6 8 9 10 10 10 11 11 12 13 14 15 15 16 17 17 17 17 17 16 17 18 19 19 18 18 18 18 18 18 18 17 17 18 18 18 18 17 17 18 19 19 20 19 18 19 20 21 22 22 22 23 22 21 19 17
17 15 15 16 15 14 15 15 14 14 13 11 9 8 7 7 6 5 5 4 4 4 3 3 3 4 4 5 6 8 9 10 11 11 11 12 12 13 14 15 16 16 17 17 17 17 18 18 18 18 19 19 19 19 18 18 18 17 18 18 18 19 18 18 18 18 17 17 18 18 18 19 19 19 19 20 21 22 22 21 21 21 20 18 18
17 16 14 14 15 15 15 15 14 13 12 10 8 7 6 6 6 6 5 5 4 3 3 4 4 5 5 6 8 9 10 10 11 11 12 12 13 14 15 16 16 17 17 18 18 18 18 19 19 18 18 19 19 19 18 18 17 17 17 18 19 19 18 18 19 18 17 17 18 18 18 19 19 20 20 20 21 22 21 22 21 20 20 20 19
15 15 14 13 13 14 14 14 13 12 10 9 7 7 7 6 6 6 5 5 4 4 4 5 5 6 7 8 8 8 9 9 10 10 11 12 14 15 15 16 17 18 18 18 18 19 19 19 19 19 18 18 18 18 18 17 16 17 18 18 18 19 19 19 18 16 16 17 19 19 18 19 19 21 22 21 21 21 22 22 22 21 21 21 20
14 14 13 13 13 14 14 13 12 11 10 9 9 8 9 7 7 6 5 5 4 5 5 6 6 7 8 8 8 8 8 9 9 10 12 13 14 15 16 17 17 18 18 18 18 18 18 19 19 18 18 18 18 18 18 18 17 17 18 18 18 20 20 19 18 17 18 18 18 18 18 18 18 20 23 22 21 21 22 23 23 23 22 22 22
14 14 13 13 13 13 13 12 11 12 11 11 10 9 10 9 7 6 5 5 5 5 6 7 7 8 8 8 8 8 9 9 10 11 13 14 15 16 16 17 17 17 17 17 17 17 17 18 18 17 17 17 17 18 18 19 19 19 18 18 18 19 17 18 20 20 20 17 17 18 18 18 18 19 22 23 22 21 22 23 24 24 24 24 24
13 14 14 13 13 13 13 13 12 13 12 12 11 11 11 9 7 6 5 6 6 6 7 7 7 7 8 8 8 9 9 10 11 12 13 14 15 16 16 16 16 16 16 16 16 16 16 17 18 17 17 18 18 19 19 19 20 20 19 18 18 18 17 18 21 20 19 18 18 18 18 18 19 19 20 21 22 22 21 22 23 24 25 26 26
13 14 14 14 14 13 13 13 13 14 13 13 13 13 11 9 8 6 6 6 7 7 7 7 7 7 7 8 8 8 9 10 11 12 13 14 15 16 16 16 15 15 15 15 16 16 16 17 18 18 18 18 19 20 19 19 20 20 20 20 19 19 19 20 20 21 20 20 19 18 18 18 19 19 19 19 21 22 23 21 21 23 25 27 28
13 13 13 14 15 14 14 14 15 15 15 15 14 13 11 9 8 7 7 7 8 9 9 9 8 8 8 8 8 9 9 10 11 12 13 14 15 15 16 16 16 15 15 15 16 17 17 17 18 19 19 20 20 21 20 19 19 19 20 20 20 21 22 22 22 23 22 20 19 19 19 19 19 19 19 19 19 21 23 23 22 22 24 26 28
11 13 14 14 15 15 15 15 16 16 16 16 15 13 12 11 10 9 9 9 9 10 11 11 11 10 10 10 10 10 11 11 12 12 13 13 14 15 16 16 17 17 16 17 17 18 18 18 18 19 19 20 20 21 20 20 20 19 20 21 22 23 24 24 24 24 24 23 22 21 20 20 20 20 20 19 19 20 21 23 23 22 22 24 27
12 14 15 16 16 16 16 16 17 17 18 17 15 14 13 13 13 12 12 11 11 11 12 13 13 12 12 12 12 12 12 13 13 13 14 13 14 14 15 16 17 17 18 18 18 18 19 19 19 20 20 21 21 21 20 21 21 21 22 22 24 25 25 24 24 24 25 26 25 23 23 22 21 21 21 21 20 20 20 22 23 23 23 24 25
14 15 16 17 17 16 16 17 17 18 18 17 16 16 15 15 15 15 14 13 12 13 13 15 15 14 14 14 14 14 14 14 15 15 15 14 14 14 14 15 16 17 18 18 19 19 20 21 21 21 22 22 23 23 23 23 23 24 25 25 26 26 27 26 26 26 26 27 26 26 26 26 24 23 22 22 21 20 20 21 23 24 24 24 25
16 17 18 17 17 16 16 17 18 18 17 17 16 16 16 17 17 17 17 16 14 14 15 16 16 16 16 15 15 15 15 16 16 16 16 15 14 14 15 15 16 17 18 19 20 21 21 22 23 24 24 25 25 26 26 26 27 27 28 28 28 28 28 28 29 29 28 27 29 30 30 29 28 26 24 23 22 21 21 22 22 22 24 25 25
Wind_Direction
187 181 175 178 183 178 174 168 164 159 156 159 161 162 160 159 159 156 150 138 116 77 55 44 39 35 35 37 39 41 45 48 48 49 50 50 49 48 49 49 49 50 53 57 58 56 57 59 59 58 56 55 56 59 64 71 77 84 89 91 93 93 94 96 100 101 102 104 105 105 105 104 103 101 99 97 95 91 86 84 81 77 73 69 64
192 184 180 181 185 182 178 174 171 167 162 164 168 173 170 169 169 166 165 159 154 103 57 44 39 34 35 36 40 41 42 47 50 52 52 52 50 50 50 50 49 49 51 55 57 54 54 55 54 54 55 56 57 61 71 81 87 91 93 94 94 94 95 97 101 102 103 103 103 103 104 104 103 101 99 96 93 90 86 81 78 74 69 64 59
193 188 184 183 187 186 182 178 177 173 168 170 173 180 181 180 180 177 177 177 182 179 49 44 39 36 36 36 39 40 39 44 50 53 54 53 51 51 51 51 51 49 50 52 54 53 54 55 54 54 54 56 60 65 76 87 93 95 96 96 95 96 99 100 101 104 105 104 104 104 103 103 101 100 97 94 90 87 83 78 72 68 64 59 55
190 191 191 187 188 189 186 183 180 176 172 176 180 186 190 191 193 192 191 197 206 223 316 31 38 38 33 28 30 35 36 41 47 52 55 54 52 52 52 52 52 51 50 51 53 56 56 58 58 56 53 56 63 70 80 89 94 97 99 99 98 101 105 106 104 105 106 106 106 105 103 101 99 96 93 90 86 82 78 73 67 61 57 53 48
188 192 196 192 190 191 190 187 182 178 175 180 186 192 198 201 203 205 210 214 218 234 260 5 31 31 22 18 20 28 34 38 43 50 55 55 54 52 52 53 53 54 53 52 54 58 59 60 61 60 57 60 66 76 85 92 97 100 104 104 105 108 110 111 109 108 108 107 105 103 102 100 97 94 90 86 82 78 72 66 60 54 50 46 42
188 192 198 196 192 194 193 190 185 179 178 183 189 196 203 208 212 216 221 225 227 234 249 297 349 5 3 5 12 22 32 36 40 46 52 54 55 53 53 53 53 55 55 54 54 57 59 61 63 63 63 64 72 81 90 96 102 104 108 111 114 115 114 113 112 111 111 107 103 102 102 99 95 92 87 83 77 71 65 59 53 49 45 40 36
191 193 198 195 193 195 194 192 187 182 181 186 191 198 205 212 219 225 230 235 238 241 253 281 310 334 344 353 8 19 27 34 38 45 49 51 54 54 53 53 53 56 57 56 55 55 57 60 61 62 66 69 75 84 93 99 103 107 113 117 119 118 116 116 114 113 112 107 104 103 101 97 93 88 83 78 72 65 59 54 49 43 38 33 29
194 194 198 195 194 194 192 193 190 187 185 189 193 199 207 214 225 233 239 246 248 254 265 281 298 318 336 351 7 16 24 31 36 43 48 49 52 54 54 54 53 55 58 58 56 54 54 57 60 62 69 74 79 86 93 98 103 110 117 119 120 119 118 117 115 115 114 110 108 106 100 97 94 89 83 77 70 62 54 50 45 38 32 26 21
197 197 198 194 195 193 191 193 193 193 191 194 196 202 208 216 230 240 247 253 258 266 275 283 299 316 332 349 4 11 21 29 34 39 46 49 51 55 56 55 55 54 56 58 57 55 54 56 62 66 72 79 85 90 95 100 106 114 118 120 121 120 120 118 117 116 112 111 112 111 106 104 100 93 84 75 65 56 49 43 36 30 23 18 13
202 200 199 194 195 194 192 193 195 198 198 200 200 205 210 220 233 244 254 259 266 273 278 286 299 311 322 344 4 10 19 28 33 34 41 48 51 56 57 57 56 55 55 56 58 57 56 59 66 71 75 82 88 94 99 104 110 116 119 121 121 121 120 119 118 115 111 112 114 113 112 109 102 92 78 64 54 49 42 33 25 18 13 9 6
207 204 200 196 195 195 194 193 195 201 204 206 205 208 212 223 237 248 259 264 270 275 279 288 296 300 311 332 355 5 19 26 34 33 37 45 53 58 60 60 58 57 55 54 57 57 57 61 69 74 78 84 90 96 102 108 113 117 120 122 123 123 122 122 120 115 114 115 114 112 108 101 93 81 65 49 41 37 29 22 14 7 3 1 359
208 205 201 198 196 195 195 193 196 202 208 212 211 213 215 225 239 251 260 266 271 275 280 288 292 295 301 312 330 341 358 18 32 33 32 36 45 53 58 62 60 58 55 54 55 57 58 62 70 76 80 85 92 98 104 110 115 118 122 123 125 124 123 124 120 116 117 116 114 111 102 93 80 62 47 34 27 22 15 9 3 359 356 355 354
209 205 201 200 199 196 194 194 198 202 208 214 216 216 217 225 238 250 259 265 269 274 279 286 289 292 297 302 310 317 332 348 10 26 32 31 35 43 51 57 60 60 57 55 56 58 59 62 70 76 81 86 92 99 106 111 116 119 123 125 125 125 125 125 118 117 120 117 117 111 100 90 69 41 24 15 9 4 359 356 354 352 351 349 348
207 204 202 201 198 193 193 195 198 202 207 212 215 216 216 223 236 247 255 260 266 273 278 284 284 286 291 294 299 306 318 321 331 352 17 26 27 30 37 46 54 63 58 55 57 58 61 65 74 80 83 86 93 99 106 112 117 122 125 126 127 127 127 126 120 120 120 118 118 110 97 76 34 5 358 353 351 349 347 345 345 345 345 344 345
200 201 199 195 191 189 192 196 198 201 205 209 212 213 214 219 232 242 250 255 261 269 276 281 280 283 284 286 295 303 310 312 317 322 341 5 19 19 18 27 37 55 59 60 61 57 61 70 77 86 90 91 95 101 107 113 119 124 127 129 131 132 132 131 127 127 127 125 124 109 345 334 332 332 335 335 336 336 336 337 339 340 340 341 342
192 190 186 185 184 185 191 195 197 200 202 206 208 209 211 217 226 236 245 252 259 265 269 271 274 281 279 280 289 297 302 303 306 309 315 325 337 351 352 359 2 17 42 63 70 65 63 68 78 92 100 101 102 106 111 116 122 127 131 135 137 139 142 143 140 146 159 180 229 263 285 300 307 314 320 323 326 327 330 332 334 336 338 339 340
183 179 179 179 179 183 190 192 195 198 200 202 203 206 209 215 222 231 238 247 253 257 260 261 266 267 267 275 285 290 294 295 296 300 302 304 300 301 314 327 332 330 342 20 76 82 78 70 77 97 109 116 117 118 122 125 131 137 142 147 150 154 161 168 173 187 211 236 256 266 277 287 293 302 309 314 319 323 326 327 330 333 336 337 337
177 178 178 178 178 185 187 188 192 192 195 198 199 204 206 212 217 225 233 240 245 248 253 257 258 254 257 271 282 286 288 291 292 296 298 300 299 299 301 303 308 305 306 315 329 103 101 101 99 106 120 136 140 140 142 145 151 158 165 170 175 181 189 203 217 231 245 257 267 273 277 283 289 294 301 307 312 318 322 324 327 330 334 335 334
179 181 181 181 182 184 183 185 189 186 190 195 198 203 204 209 212 219 228 235 241 244 248 248 249 250 255 265 273 278 282 286 289 292 293 297 304 307 307 303 303 300 295 295 284 254 191 156 162 169 162 167 172 172 173 176 181 187 196 201 206 213 222 233 243 254 262 268 274 279 283 288 293 297 302 306 311 315 319 322 325 328 331 332 332
183 184 186 186 185 184 182 185 188 186 190 194 197 201 202 207 209 212 220 228 234 236 240 242 246 252 255 259 265 272 278 283 285 287 291 297 306 310 311 310 308 304 298 293 288 270 254 229 206 202 201 204 212 210 208 207 208 214 218 221 228 235 241 249 257 264 269 273 278 284 289 294 298 302 305 307 311 315 318 320 322 325 328 329 330
184 187 188 186 186 185 183 187 189 186 189 193 195 197 200 204 204 207 213 221 227 230 235 240 246 252 255 259 265 272 278 283 285 288 294 301 307 312 312 313 311 307 301 296 294 285 273 257 237 228 222 217 224 229 229 231 232 234 234 236 243 249 254 260 267 271 274 276 282 287 291 296 300 304 307 309 312 314 316 318 321 323 326 327 328
183 184 185 184 186 186 185 188 187 185 187 191 194 196 199 202 203 206 211 216 222 228 234 240 247 251 257 264 271 277 282 286 290 294 299 303 307 309 308 308 307 304 301 296 293 290 285 275 259 246 240 232 231 234 236 241 245 248 249 252 256 261 267 272 275 278 279 280 284 288 292 296 300 303 306 309 311 313 315 317 319 321 323 325 327
177 178 180 182 183 184 185 185 184 184 186 190 194 198 201 203 205 208 213 218 222 228 235 241 248 254 261 270 277 284 288 292 298 301 302 303 305 305 303 302 302 301 299 297 295 291 288 283 275 263 252 246 245 244 245 246 248 253 257 261 265 270 275 278 280 281 281 283 285 288 292 295 297 299 302 305 308 312 315 317 318 320 322 324 326
171 173 174 176 178 180 180 181 182 184 188 191 195 199 203 207 209 212 218 222 228 233 240 247 255 263 270 278 286 292 296 300 303 304 303 303 303 301 300 299 299 298 298 298 298 295 290 285 280 274 265 256 253 254 255 254 253 253 256 259 263 267 270 273 275 277 279 280 283 286 289 292 293 295 297 301 305 310 313 316 318 321 322 323 325
166 165 165 168 171 174 175 178 182 186 189 192 197 201 206 210 213 217 221 224 232 238 245 254 262 269 277 285 294 297 300 306 308 308 307 305 303 302 301 300 300 300 301 302 300 297 293 287 281 277 273 266 260 258 258 260 261 259 258 257 257 259 261 264 268 270 273 276 279 282 285 288 289 291 294 297 302 306 310 315 318 320 322 323 323
162 160 160 165 170 174 176 179 184 186 189 194 198 202 207 213 216 220 224 228 232 238 246 253 260 270 281 291 296 298 302 308 309 309 308 305 302 303 303 302 305 307 309 307 303 300 298 294 287 278 274 270 267 264 261 259 259 258 258 256 256 258 261 262 265 267 270 274 276 279 282 284 285 288 291 295 299 302 307 312 315 317 320 321 320
160 162 164 170 176 178 181 185 188 187 191 196 198 203 208 214 218 221 225 229 233 236 241 246 260 275 286 294 293 295 301 303 303 304 303 302 301 303 305 307 310 312 312 312 310 308 307 304 296 285 276 271 269 268 265 261 258 258 259 260 261 263 265 265 265 267 270 273 276 279 281 283 285 286 289 293 296 299 304 308 310 313 315 316 316
163 166 170 177 181 183 188 190 192 192 194 196 199 204 209 212 214 217 222 224 228 230 234 247 267 282 286 288 290 297 306 304 302 302 300 299 304 308 311 315 315 313 314 316 317 316 316 315 307 296 283 274 272 271 271 269 267 266 264 264 265 265 267 268 268 270 271 274 277 279 281 284 286 287 289 290 293 297 301 303 306 309 310 310 311
166 171 176 182 186 189 194 194 196 197 197 197 201 204 206 208 208 210 215 215 219 223 230 251 271 283 287 287 294 305 311 310 308 305 303 307 316 320 322 322 319 318 320 323 324 324 324 325 319 309 296 286 279 277 277 277 276 274 271 269 268 269 271 273 274 275 275 276 278 279 281 285 287 289 290 290 293 296 298 300 303 305 306 304 305
172 177 182 186 191 195 196 197 198 198 198 197 199 201 202 203 204 209 212 212 216 222 234 258 277 284 288 292 301 313 317 316 317 315 317 322 325 329 330 327 327 328 329 331 333 331 331 333 329 319 309 300 294 290 287 284 283 281 278 276 275 275 277 279 280 280 280 279 279 280 282 284 286 288 290 291 293 296 297 298 300 300 300 299 299
179 182 186 191 195 197 198 198 197 197 198 197 198 198 200 204 206 210 213 216 219 229 246 266 278 284 291 299 309 318 322 321 323 322 323 327 329 332 333 330 331 332 332 335 336 333 332 335 335 329 318 310 304 301 298 295 292 288 285 284 282 282 283 284 285 286 286 285 283 283 284 284 283 282 285 290 291 294 297 296 296 296 294 292 293
183 185 191 197 198 199 198 197 196 196 195 197 200 199 202 207 208 210 215 221 227 239 254 264 272 281 289 298 309 317 322 322 322 321 323 328 332 335 333 330 330 329 330 330 331 330 329 330 332 333 329 322 315 310 307 304 301 298 295 292 289 288 287 287 288 288 288 288 287 287 286 287 288 280 278 286 289 290 294 295 294 292 289 286 287
185 191 197 200 200 199 195 194 195 194 194 197 201 202 204 208 211 212 214 222 231 242 252 260 267 275 284 294 310 320 325 326 326 326 325 328 333 335 331 326 326 327 328 327 325 325 325 326 328 330 331 330 325 318 313 310 306 303 301 300 297 293 289 288 287 286 286 287 287 288 288 290 292 283 274 279 284 286 291 294 294 292 287 283 282
190 198 201 200 199 197 193 192 190 192 195 197 200 202 203 207 211 211 214 226 235 245 250 254 260 266 285 304 322 330 336 337 337 334 330 330 333 335 331 326 325 325 326 325 323 323 321 320 322 325 329 331 328 322 316 310 307 304 301 300 297 294 293 290 289 288 288 289 288 289 290 291 292 287 277 275 278 283 287 290 291 291 290 285 279
195 200 202 201 197 192 191 190 186 191 195 196 198 198 200 202 204 208 216 227 232 235 236 237 245 257 286 317 333 333 333 337 338 335 329 328 331 334 333 330 327 326 326 325 322 320 318 316 319 323 327 331 329 324 318 313 309 307 304 303 301 301 304 302 300 298 296 295 293 290 289 288 288 286 282 278 278 281 282 283 285 286 288 289 283
197 199 201 201 195 189 187 185 187 192 193 192 192 193 196 198 202 209 210 213 215 214 220 229 243 258 285 317 325 321 317 324 329 329 323 320 324 328 330 331 328 327 326 324 320 317 315 315 318 320 323 326 327 325 320 315 312 309 308 309 310 311 313 312 309 307 304 301 299 295 290 286 283 282 282 283 283 281 278 279 282 282 281 285 286
195 198 197 192 189 187 182 182 187 189 189 187 188 192 194 197 202 202 201 203 205 209 222 234 243 259 287 310 317 318 318 322 325 327 324 321 322 325 327 327 327 327 326 323 319 315 314 314 314 314 317 320 322 324 321 316 313 311 311 311 312 314 314 312 310 308 305 303 301 298 294 288 283 282 282 283 283 280 277 277 280 281 279 277 281
195 195 185 183 186 182 177 180 183 183 185 187 188 191 191 193 194 192 196 199 204 214 226 238 249 260 281 300 311 317 318 320 322 324 324 323 324 324 323 324 324 325 324 322 320 317 315 314 313 312 312 313 315 318 318 317 315 314 313 313 315 316 315 312 310 308 306 304 301 299 296 291 286 284 283 283 282 280 278 276 275 278 281 277 272
193 190 177 178 180 173 173 177 179 182 185 187 186 188 190 189 189 193 197 200 211 223 232 242 252 259 272 289 300 309 314 316 318 319 320 321 321 321 320 321 322 321 321 321 320 319 317 316 316 313 311 311 310 312 314 315 315 314 313 315 317 319 317 314 311 310 308 306 303 301 298 294 291 287 285 282 281 281 281 278 274 275 281 278 269
187 190 179 175 172 169 172 175 180 184 185 186 184 186 196 197 197 204 204 210 222 228 238 244 251 261 271 287 298 308 312 312 313 314 315 315 315 316 318 318 319 319 319 318 318 317 317 317 317 315 312 311 311 312 314 314 313 311 311 314 317 318 318 316 314 311 309 307 306 303 300 297 295 291 287 283 281 281 281 280 277 275 277 278 273
180 184 180 174 170 169 172 177 182 186 187 188 189 194 208 208 206 207 203 210 223 232 250 258 267 279 287 299 305 308 309 308 308 307 306 308 310 312 314 317 318 317 316 315 314 314 314 316 316 316 314 314 315 316 316 316 314 311 310 311 314 315 316 316 314 312 311 311 309 307 303 299 297 294 290 286 284 283 282 281 279 276 275 276 276
178 177 176 174 173 173 177 183 187 191 193 195 200 206 212 208 195 191 193 204 223 241 257 269 278 287 294 299 300 300 300 300 300 300 301 303 306 309 311 314 314 314 313 313 311 311 312 314 315 316 316 317 319 319 319 318 316 312 312 314 315 315 316 316 315 315 316 314 311 308 305 303 302 299 295 291 288 285 284 281 279 277 274 274 274
179 177 175 175 178 179 184 191 193 197 202 207 211 207 206 203 191 189 196 209 229 249 263 276 281 285 288 288 288 288 290 292 293 296 299 301 304 308 311 312 312 312 312 311 310 311 312 312 314 316 318 320 320 321 322 319 317 314 314 316 315 315 317 317 316 316 316 314 310 307 306 305 304 302 299 297 293 288 285 282 280 278 275 273 272
185 184 180 182 186 186 191 197 203 207 212 217 214 205 201 202 199 201 210 225 241 258 270 278 284 288 288 285 284 285 286 288 291 294 298 302 307 310 313 314 314 314 314 314 314 314 314 314 317 319 320 321 320 322 322 319 319 319 315 313 312 314 315 311 310 312 313 314 313 309 306 305 302 300 300 300 298 292 285 282 280 279 276 273 272
191 192 190 193 196 198 202 209 216 220 222 220 211 204 204 207 211 219 232 247 256 263 269 276 281 282 280 279 279 280 283 287 292 298 303 308 311 312 314 316 317 319 320 320 320 320 319 319 319 320 320 320 320 322 321 317 320 321 316 312 312 313 310 305 307 311 313 316 315 312 309 307 303 299 298 300 300 297 292 286 281 279 277 274 272
191 193 196 201 203 206 213 219 224 226 225 217 208 206 209 214 223 235 247 257 262 261 263 270 274 274 274 275 277 280 285 291 297 304 309 311 313 313 314 316 318 322 323 323 323 323 323 322 320 319 319 319 319 320 320 317 318 319 318 316 315 312 310 309 311 311 312 315 314 313 311 309 306 302 300 300 301 301 300 296 289 282 278 275 272
190 191 197 204 208 212 219 222 223 222 218 213 210 213 216 224 233 244 254 263 266 263 261 266 272 277 280 282 286 289 292 297 301 304 307 309 311 312 313 314 316 319 320 320 320 320 321 320 318 317 316 316 316 317 317 315 314 315 316 316 314 312 312 312 312 311 311 311 312 313 312 309 308 304 302 302 303 301 300 299 295 289 282 277 272
199 199 205 211 215 219 223 223 220 215 213 212 214 219 225 233 239 245 253 260 267 267 264 265 270 277 283 286 289 291 292 294 296 299 301 304 307 310 313 315 316 316 316 316 316 316 317 317 315 314 313 313 313 314 313 311 311 311 311 312 312 312 312 311 311 311 309 309 310 311 309 308 307 305 304 305 304 300 297 297 297 295 289 283 276
210 210 213 217 219 222 224 223 218 213 212 214 218 224 230 238 242 247 252 257 264 269 267 264 266 271 277 281 283 285 287 288 291 292 295 298 303 308 312 314 314 314 314 313 314 313 313 313 312 311 311 310 310 309 308 306 306 306 305 306 307 308 308 307 308 307 305 306 306 305 305 306 306 306 306 306 305 302 299 298 297 298 295 289 282
216 216 217 219 222 224 226 224 219 216 216 218 223 228 234 239 244 249 254 258 263 268 270 266 264 266 270 274 277 280 282 284 286 287 290 294 299 304 308 310 310 310 311 310 311 311 311 310 310 310 309 308 307 306 304 302 301 300 301 301 301 302 303 303 302 302 302 302 301 302 305 305 303 302 302 303 304 302 299 299 298 299 299 295 289
220 222 222 224 224 225 227 225 221 221 222 226 230 235 240 243 248 254 259 262 266 270 274 270 265 262 266 271 274 277 280 282 284 285 288 290 294 298 300 302 304 305 307 308 309 310 310 310 310 309 307 306 305 304 302 301 300 299 299 299 299 300 300 300 300 300 300 299 298 301 303 302 300 300 300 301 303 300 298 299 299 299 300 298 295